Location: *
(49.5667°N, 1.3667°W)
Time: 20:33:13
(UTC+00:00)

Landsat 7 - Pass Details

Date: 20 September 2019
Orbit: 701 x 703 km, 98.1° (Epoch: 17 October)

Event Time Altitude Azimuth Distance (km) Brightness Sun altitude
Exits shadow 21:00:48 45° 27° (NNE) 958 4.5 -26.7°
Drops below altitude 10° 21:04:26 10° 354° (N) 2,182 6.9 -27.2°
Sets 21:06:44 0° 350° (N) 3,105 7.9 -27.5°
